Coldwater, MI

11:47 PM EDT on March 23, 2017 (GMT -0400)
Branch County Memorial

Weather History for KOEB - August, 2014

Change the Weather History Date:

Sunday, August 24, 2014

  Actual Average (KJYM) Record (KJYM)
Temperature  
Mean Temperature 74 °F -  
Max Temperature 82 °F 79 °F 95 °F (1948)
Min Temperature 66 °F 55 °F 36 °F (1984)
Cooling Degree Days 9    
Growing Degree Days 24 (Base 50)    
Moisture  
Dew Point 67 °F    
Average Humidity 80    
Maximum Humidity 96    
Minimum Humidity 59    
Precipitation  
Precipitation 0.00 in - - ()
Sea Level Pressure  
Sea Level Pressure 30.07 in    
Wind  
Wind Speed 5 mph (ESE)    
Max Wind Speed 9 mph    
Max Gust Speed -    
Visibility 8 miles    
Events      
Averages and records for this station are not official NWS values.
T = Trace of Precipitation, MM = Missing Value Source: NWS Daily Summary

Daily Weather History Graph

Daily Weather History Graph

Search for Another Location

Airport or City:

Trip Planner

Search our weather history database for the weather conditions in past years. The results will help you decide how hot, cold, wet, or windy it might be!

Date:

Astronomy

Aug. 24, 2014 Rise Set
Actual Time 6:57 AM EDT 8:26 PM EDT
Civil Twilight 6:28 AM EDT 8:55 PM EDT
Nautical Twilight 5:52 AM EDT 9:31 PM EDT
Astronomical Twilight 5:15 AM EDT 10:08 PM EDT
Moon 6:07 AM EDT 7:44 PM EDT
Length of Visible Light 14h 27m
Length of Day
13h 29m
Waning Crescent, 1% of the Moon is Illuminated
Aug 24
Waning Crescent
Aug 25
New
Sep 2
First Quarter
Sep 8
Full
Sep 15
Last Quarter

Hourly Weather History & Observations

Time (EDT) Temp. Heat Index Dew Point Humidity Pressure Visibility Wind Dir Wind Speed Gust Speed Precip Events Conditions
12:34 AM 69.4 °F - 65.5 °F 87% 30.06 in 10.0 mi ESE 5.8 mph - N/A   Clear
12:54 AM 68.9 °F - 65.5 °F 89% 30.07 in 10.0 mi ESE 4.6 mph - N/A   Clear
1:15 AM 68.4 °F - 65.3 °F 90% 30.07 in 7.0 mi ESE 4.6 mph - N/A   Clear
1:34 AM 68.2 °F - 65.5 °F 91% 30.07 in 7.0 mi SE 3.5 mph - N/A   Clear
1:54 AM 68.0 °F - 65.7 °F 92% 30.07 in 7.0 mi ESE 5.8 mph - N/A   Clear
2:15 AM 68.2 °F - 65.8 °F 92% 30.07 in 7.0 mi SE 4.6 mph - N/A   Mostly Cloudy
2:34 AM 67.6 °F - 65.7 °F 93% 30.06 in 7.0 mi East 4.6 mph - N/A   Scattered Clouds
2:55 AM 67.6 °F - 65.7 °F 93% 30.06 in 5.0 mi Calm Calm - N/A   Clear
3:15 AM 67.5 °F - 65.7 °F 94% 30.07 in 7.0 mi Calm Calm - N/A   Mostly Cloudy
3:34 AM 67.3 °F - 65.7 °F 95% 30.07 in 5.0 mi Calm Calm - N/A   Mostly Cloudy
3:55 AM 67.1 °F - 65.5 °F 95% 30.06 in 5.0 mi Calm Calm - N/A   Scattered Clouds
4:14 AM 66.6 °F - 65.3 °F 96% 30.06 in 5.0 mi East 3.5 mph - N/A   Clear
4:35 AM 66.2 °F - 64.9 °F 96% 30.06 in 5.0 mi East 3.5 mph - N/A   Clear
4:54 AM 66.7 °F - 65.5 °F 96% 30.05 in 5.0 mi ENE 4.6 mph - N/A   Clear
5:14 AM 66.6 °F - 65.3 °F 96% 30.05 in 4.0 mi East 3.5 mph - N/A   Clear
5:35 AM 66.6 °F - 65.3 °F 96% 30.06 in 4.0 mi Calm Calm - N/A   Mostly Cloudy
5:54 AM 66.4 °F - 65.3 °F 96% 30.06 in 4.0 mi East 3.5 mph - N/A   Overcast
6:14 AM 66.6 °F - 65.3 °F 96% 30.07 in 4.0 mi East 5.8 mph - N/A   Overcast
6:35 AM 67.1 °F - 65.7 °F 95% 30.07 in 4.0 mi East 6.9 mph - N/A   Overcast
6:54 AM 67.1 °F - 65.7 °F 95% 30.08 in 3.0 mi East 5.8 mph - N/A   Overcast
7:14 AM 67.3 °F - 65.8 °F 95% 30.08 in 4.0 mi East 5.8 mph - N/A   Overcast
7:35 AM 67.6 °F - 66.2 °F 95% 30.08 in 3.0 mi East 8.1 mph - N/A   Overcast
7:54 AM 68.0 °F - 66.2 °F 94% 30.08 in 3.0 mi East 5.8 mph - N/A   Overcast
8:14 AM 68.2 °F - 66.4 °F 94% 30.09 in 3.0 mi ESE 3.5 mph - N/A   Overcast
8:35 AM 68.9 °F - 66.6 °F 92% 30.08 in 4.0 mi ESE 6.9 mph - N/A   Overcast
8:54 AM 69.8 °F - 66.9 °F 91% 30.08 in 5.0 mi ESE 8.1 mph - N/A   Overcast
9:14 AM 70.5 °F - 67.1 °F 89% 30.09 in 7.0 mi ESE 3.5 mph - N/A   Mostly Cloudy
9:35 AM 71.6 °F - 67.5 °F 87% 30.09 in 7.0 mi SE 6.9 mph - N/A   Overcast
9:54 AM 72.0 °F - 67.6 °F 86% 30.09 in 10.0 mi ESE 6.9 mph - N/A   Overcast
10:15 AM 72.1 °F - 66.6 °F 83% 30.09 in 10.0 mi SE 8.1 mph - N/A   Overcast
10:34 AM 73.6 °F - 66.6 °F 79% 30.09 in 10.0 mi ESE 8.1 mph - N/A   Mostly Cloudy
10:54 AM 74.7 °F - 66.7 °F 76% 30.09 in 10.0 mi ESE 8.1 mph - N/A   Overcast
11:15 AM 75.7 °F - 67.3 °F 75% 30.09 in 10.0 mi ESE 8.1 mph - N/A   Mostly Cloudy
11:34 AM 76.3 °F - 67.1 °F 73% 30.09 in 10.0 mi SE 5.8 mph - N/A   Mostly Cloudy
11:55 AM 77.0 °F - 67.3 °F 72% 30.09 in 10.0 mi East 8.1 mph - N/A   Mostly Cloudy
12:14 PM 77.4 °F - 67.1 °F 71% 30.09 in 10.0 mi ESE 9.2 mph - N/A   Overcast
12:34 PM 78.1 °F - 66.9 °F 68% 30.09 in 10.0 mi ESE 4.6 mph - N/A   Overcast
12:55 PM 78.1 °F - 66.9 °F 68% 30.09 in 10.0 mi East 8.1 mph - N/A   Overcast
1:14 PM 79.3 °F - 67.3 °F 66% 30.09 in 10.0 mi ESE 6.9 mph - N/A   Mostly Cloudy
1:34 PM 80.8 °F 83.3 °F 67.6 °F 64% 30.08 in 10.0 mi SE 6.9 mph - N/A   Mostly Cloudy
1:55 PM 78.6 °F - 67.3 °F 68% 30.08 in 10.0 mi East 5.8 mph - N/A   Overcast
2:14 PM 79.5 °F - 67.6 °F 67% 30.08 in 10.0 mi ENE 5.8 mph - N/A   Overcast
2:34 PM 79.9 °F - 67.5 °F 66% 30.08 in 10.0 mi East 4.6 mph - N/A   Overcast
2:55 PM 80.6 °F 83.2 °F 67.6 °F 65% 30.07 in 10.0 mi East 8.1 mph - N/A   Mostly Cloudy
3:14 PM 80.8 °F 83.5 °F 68.0 °F 65% 30.06 in 10.0 mi East 4.6 mph - N/A   Overcast
3:34 PM 79.9 °F - 68.2 °F 67% 30.06 in 10.0 mi Calm Calm - N/A   Overcast
3:55 PM 80.4 °F 83.1 °F 68.0 °F 66% 30.05 in 10.0 mi ESE 5.8 mph - N/A   Overcast
4:14 PM 81.0 °F 83.8 °F 68.2 °F 65% 30.05 in 10.0 mi ESE 5.8 mph - N/A   Overcast
4:34 PM 80.8 °F 83.5 °F 67.8 °F 65% 30.05 in 10.0 mi Calm Calm - N/A   Overcast
4:54 PM 81.5 °F 84.2 °F 67.6 °F 63% 30.04 in 10.0 mi ESE 5.8 mph - N/A   Overcast
5:14 PM 82.4 °F 85.0 °F 67.5 °F 60% 30.04 in 10.0 mi ESE 6.9 mph - N/A   Overcast
5:35 PM 82.6 °F 85.1 °F 66.9 °F 59% 30.04 in 10.0 mi East 5.8 mph - N/A   Mostly Cloudy
5:54 PM 82.4 °F 85.0 °F 67.1 °F 60% 30.04 in 10.0 mi SE 5.8 mph - N/A   Overcast
6:14 PM 81.5 °F 83.9 °F 67.1 °F 61% 30.04 in 10.0 mi North - - N/A   Overcast
6:34 PM 81.0 °F 83.3 °F 66.7 °F 62% 30.04 in 10.0 mi ESE 5.8 mph - N/A   Overcast
6:54 PM 80.8 °F 83.3 °F 67.5 °F 64% 30.04 in 10.0 mi ESE 3.5 mph - N/A   Overcast
7:15 PM 81.0 °F 83.6 °F 67.6 °F 64% 30.04 in 10.0 mi ESE 4.6 mph - N/A   Overcast
7:34 PM 80.6 °F 83.2 °F 67.8 °F 65% 30.04 in 10.0 mi ESE 4.6 mph - N/A   Mostly Cloudy
7:54 PM 79.2 °F - 68.2 °F 69% 30.04 in 10.0 mi ESE 4.6 mph - N/A   Mostly Cloudy
8:14 PM 79.0 °F - 67.8 °F 69% 30.04 in 10.0 mi ESE 5.8 mph - N/A   Overcast
8:34 PM 78.4 °F - 68.0 °F 70% 30.05 in 10.0 mi ESE 8.1 mph - N/A   Overcast
8:55 PM 77.4 °F - 68.2 °F 73% 30.05 in 10.0 mi ESE 8.1 mph - N/A   Overcast
9:14 PM 76.3 °F - 68.2 °F 76% 30.05 in 10.0 mi ESE 8.1 mph - N/A   Scattered Clouds
9:34 PM 75.4 °F - 68.0 °F 78% 30.06 in 10.0 mi ESE 5.8 mph - N/A   Clear
9:55 PM 74.5 °F - 68.2 °F 81% 30.07 in 7.0 mi ESE 5.8 mph - N/A   Clear
10:14 PM 74.3 °F - 68.0 °F 81% 30.07 in 7.0 mi ESE 3.5 mph - N/A   Mostly Cloudy
10:34 PM 73.6 °F - 68.0 °F 83% 30.07 in 7.0 mi ESE 4.6 mph - N/A   Overcast
10:55 PM 72.9 °F - 68.2 °F 85% 30.08 in 7.0 mi ESE 4.6 mph - N/A   Mostly Cloudy
11:14 PM 72.5 °F - 68.0 °F 86% 30.08 in 7.0 mi ESE 4.6 mph - N/A   Mostly Cloudy
11:34 PM 72.5 °F - 67.5 °F 84% 30.08 in 7.0 mi ESE 5.8 mph - N/A   Mostly Cloudy
11:54 PM 71.8 °F - 67.3 °F 86% 30.08 in 7.0 mi ESE 5.8 mph - N/A   Scattered Clouds